When you browse on this site, cookies collect data to enhance your experience and personalize the content and advertising you see.
Visit our Privacy Policy to learn more. By continuing to use the site, you agree to this use of cookies and data.
EN

Hourly Weather Bahawalpur

Today, 10 July, Friday

Time Temperature Precipitation Wind Pressure Humidity
00:00 +42°C° 0 mm 5 mps 736 mmHg 32%
01:00 +41°C° 0 mm 7 mps 736 mmHg 36%
02:00 +40°C° 0 mm 8 mps 736 mmHg 40%
03:00 +39°C° 0 mm 8 mps 736 mmHg 41%
04:00 +39°C° 0 mm 8 mps 736 mmHg 43%
05:00 +37°C° 0 mm 5 mps 736 mmHg 41%
06:00 +39°C° 0 mm 6 mps 736 mmHg 40%
07:00 +40°C° 0 mm 7 mps 737 mmHg 39%
08:00 +40°C° 0 mm 8 mps 737 mmHg 39%
09:00 +43°C° 0 mm 8 mps 737 mmHg 35%
10:00 +45°C° 0 mm 8 mps 737 mmHg 32%
11:00 +46°C° 0 mm 8 mps 737 mmHg 28%
12:00 +49°C° 0 mm 8 mps 736 mmHg 26%
13:00 +50°C° 0 mm 8 mps 735 mmHg 24%
14:00 +51°C° 0 mm 8 mps 735 mmHg 22%
15:00 +51°C° 0 mm 7 mps 734 mmHg 21%
16:00 +51°C° 0 mm 7 mps 734 mmHg 20%
17:00 +51°C° 0 mm 7 mps 733 mmHg 19%
18:00 +50°C° 0 mm 7 mps 734 mmHg 20%
19:00 +48°C° 0 mm 6 mps 734 mmHg 21%
20:00 +47°C° 0 mm 6 mps 734 mmHg 22%
21:00 +46°C° 0 mm 8 mps 734 mmHg 28%
22:00 +45°C° 0 mm 9 mps 734 mmHg 33%
23:00 +43°C° 0 mm 11 mps 735 mmHg 39%

Tomorrow, 11 July, Saturday

Time Temperature Precipitation Wind Pressure Humidity
00:00 +43°C° 0 mm 10 mps 735 mmHg 41%
01:00 +42°C° 0 mm 10 mps 735 mmHg 43%
02:00 +40°C° 0 mm 10 mps 735 mmHg 46%
03:00 +40°C° 0 mm 9 mps 735 mmHg 49%
04:00 +39°C° 0 mm 8 mps 734 mmHg 53%
05:00 +38°C° 0 mm 8 mps 734 mmHg 56%
06:00 +39°C° 0 mm 8 mps 735 mmHg 54%
07:00 +39°C° 0 mm 8 mps 735 mmHg 52%
08:00 +39°C° 0 mm 8 mps 735 mmHg 50%
09:00 +41°C° 0 mm 8 mps 735 mmHg 45%
10:00 +44°C° 0 mm 8 mps 735 mmHg 39%
11:00 +46°C° 0 mm 8 mps 735 mmHg 34%
12:00 +47°C° 0 mm 7 mps 734 mmHg 29%
13:00 +50°C° 0 mm 7 mps 734 mmHg 25%
14:00 +52°C° 0 mm 7 mps 733 mmHg 20%
15:00 +52°C° 0 mm 7 mps 733 mmHg 19%
16:00 +52°C° 0 mm 7 mps 732 mmHg 18%
17:00 +52°C° 0 mm 7 mps 732 mmHg 17%
18:00 +51°C° 0 mm 7 mps 732 mmHg 19%
19:00 +48°C° 0 mm 6 mps 732 mmHg 20%
20:00 +47°C° 0 mm 6 mps 732 mmHg 21%
21:00 +46°C° 0 mm 7 mps 733 mmHg 25%
22:00 +45°C° 0 mm 8 mps 733 mmHg 28%
23:00 +44°C° 0 mm 9 mps 733 mmHg 31%

Day after tomorrow, 12 July, Sunday

Time Temperature Precipitation Wind Pressure Humidity
00:00 +43°C° 0 mm 10 mps 734 mmHg 36%
01:00 +40°C° 0 mm 10 mps 734 mmHg 42%
02:00 +38°C° 0 mm 10 mps 734 mmHg 47%
03:00 +37°C° 0 mm 10 mps 734 mmHg 51%
04:00 +35°C° 0 mm 9 mps 734 mmHg 56%
05:00 +34°C° 0 mm 9 mps 734 mmHg 60%
06:00 +34°C° 0 mm 9 mps 734 mmHg 58%
07:00 +35°C° 0 mm 9 mps 735 mmHg 56%
08:00 +35°C° 0 mm 9 mps 735 mmHg 54%
09:00 +38°C° 0 mm 9 mps 735 mmHg 49%
10:00 +40°C° 0 mm 9 mps 735 mmHg 43%
11:00 +43°C° 0 mm 9 mps 735 mmHg 38%
12:00 +44°C° 0 mm 8 mps 735 mmHg 33%
13:00 +46°C° 0 mm 7 mps 735 mmHg 28%
14:00 +49°C° 0 mm 7 mps 734 mmHg 24%
15:00 +48°C° 0 mm 6 mps 734 mmHg 23%
16:00 +49°C° 0 mm 6 mps 733 mmHg 22%
17:00 +49°C° 0 mm 5 mps 733 mmHg 20%
18:00 +48°C° 0 mm 5 mps 733 mmHg 23%
19:00 +47°C° 0 mm 5 mps 734 mmHg 25%
20:00 +45°C° 0 mm 5 mps 734 mmHg 27%
21:00 +44°C° 0 mm 6 mps 734 mmHg 30%
22:00 +43°C° 0 mm 7 mps 735 mmHg 33%
23:00 +41°C° 0 mm 8 mps 735 mmHg 36%

13 July, Monday

Time Temperature Precipitation Wind Pressure Humidity
00:00 +40°C° 0 mm 8 mps 735 mmHg 41%
01:00 +39°C° 0 mm 8 mps 735 mmHg 46%
02:00 +37°C° 0 mm 8 mps 735 mmHg 51%
03:00 +35°C° 0 mm 8 mps 736 mmHg 54%
04:00 +34°C° 0 mm 7 mps 736 mmHg 57%
05:00 +34°C° 0 mm 6 mps 736 mmHg 60%
06:00 +34°C° 0 mm 6 mps 737 mmHg 59%
07:00 +34°C° 0 mm 5 mps 737 mmHg 58%
08:00 +35°C° 0 mm 5 mps 738 mmHg 56%
09:00 +37°C° 0 mm 5 mps 738 mmHg 50%
10:00 +38°C° 0 mm 4 mps 738 mmHg 44%
11:00 +41°C° 0 mm 4 mps 738 mmHg 38%
12:00 +42°C° 0 mm 4 mps 737 mmHg 34%
13:00 +44°C° 0 mm 4 mps 737 mmHg 29%
14:00 +45°C° 0 mm 4 mps 736 mmHg 25%
15:00 +47°C° 0 mm 4 mps 736 mmHg 23%
16:00 +47°C° 0 mm 4 mps 735 mmHg 22%
17:00 +48°C° 0 mm 4 mps 734 mmHg 20%
18:00 +47°C° 0 mm 4 mps 735 mmHg 21%
19:00 +45°C° 0 mm 4 mps 735 mmHg 22%
20:00 +44°C° 0 mm 3 mps 736 mmHg 23%
21:00 +43°C° 0 mm 4 mps 737 mmHg 25%
22:00 +42°C° 0 mm 4 mps 737 mmHg 27%
23:00 +41°C° 0 mm 5 mps 738 mmHg 30%

14 July, Tuesday

Time Temperature Precipitation Wind Pressure Humidity
00:00 +40°C° 0 mm 4 mps 738 mmHg 34%
01:00 +38°C° 0 mm 3 mps 738 mmHg 38%
02:00 +36°C° 0 mm 2 mps 738 mmHg 42%
03:00 +36°C° 0 mm 2 mps 738 mmHg 43%
04:00 +36°C° 0 mm 3 mps 738 mmHg 44%
05:00 +37°C° 0 mm 4 mps 739 mmHg 44%
06:00 +37°C° 0 mm 4 mps 739 mmHg 45%
07:00 +37°C° 0 mm 5 mps 740 mmHg 46%
08:00 +39°C° 0 mm 5 mps 740 mmHg 47%
09:00 +40°C° 0 mm 5 mps 740 mmHg 43%
10:00 +42°C° 0 mm 4 mps 740 mmHg 39%
11:00 +43°C° 0 mm 3 mps 740 mmHg 35%
12:00 +44°C° 0 mm 3 mps 740 mmHg 31%
13:00 +45°C° 0 mm 3 mps 739 mmHg 28%
14:00 +46°C° 0 mm 2 mps 739 mmHg 24%
15:00 +46°C° 0 mm 2 mps 738 mmHg 24%
16:00 +46°C° 0 mm 2 mps 738 mmHg 23%
17:00 +46°C° 0 mm 1 mps 737 mmHg 22%
18:00 +46°C° 0 mm 2 mps 738 mmHg 23%
19:00 +46°C° 0 mm 2 mps 738 mmHg 23%
20:00 +45°C° 0 mm 2 mps 738 mmHg 24%
21:00 +44°C° 0 mm 3 mps 738 mmHg 25%
22:00 +44°C° 0 mm 4 mps 738 mmHg 26%
23:00 +43°C° 0 mm 4 mps 739 mmHg 27%

15 July, Wednesday

Time Temperature Precipitation Wind Pressure Humidity
00:00 +43°C° 0 mm 5 mps 738 mmHg 27%
01:00 +42°C° 0 mm 5 mps 738 mmHg 28%
02:00 +42°C° 0 mm 5 mps 738 mmHg 28%
03:00 +41°C° 0 mm 5 mps 738 mmHg 30%
04:00 +40°C° 0 mm 5 mps 738 mmHg 31%
05:00 +40°C° 0 mm 5 mps 738 mmHg 33%
06:00 +40°C° 0 mm 5 mps 739 mmHg 34%
07:00 +41°C° 0 mm 5 mps 739 mmHg 35%
08:00 +42°C° 0 mm 5 mps 739 mmHg 36%
09:00 +43°C° 0 mm 4 mps 739 mmHg 31%
10:00 +45°C° 0 mm 3 mps 739 mmHg 27%
11:00 +47°C° 0 mm 2 mps 739 mmHg 22%
12:00 +48°C° 0 mm 2 mps 738 mmHg 20%
13:00 +49°C° 0 mm 2 mps 737 mmHg 18%
14:00 +49°C° 0 mm 2 mps 737 mmHg 17%
15:00 +49°C° 0 mm 2 mps 736 mmHg 17%
16:00 +49°C° 0 mm 2 mps 736 mmHg 17%
17:00 +48°C° 0 mm 3 mps 735 mmHg 17%
18:00 +48°C° 0 mm 2 mps 736 mmHg 19%
19:00 +47°C° 0 mm 2 mps 736 mmHg 20%
20:00 +46°C° 0 mm 2 mps 736 mmHg 21%
21:00 +45°C° 0 mm 2 mps 736 mmHg 22%
22:00 +45°C° 0 mm 3 mps 736 mmHg 22%
23:00 +44°C° 0 mm 3 mps 736 mmHg 23%
Show more